User: anonymous   Login
Location: Pella
(41.4080°N, 92.9160°W)
Time: 02:20:43
(UTC-05:00)
Language:

Iridium 91 - Orbit

View from above orbital plane
View from above orbital plane
View from above satellite
View from above satellite

Ground track
Ground track

The orbit data is extracted from the following two-line orbital elements,

1 27372U 02005A   16126.45915763  .00000017  00000-0 -10970-5 0  9995
2 27372  86.3957  98.2569 0002369  88.3863  62.3405 14.34216025753188
Epoch (UTC): 05 May 2016 11:01:11
Eccentricity: 0.0002369
inclination: 86.3957°
perigee height: 776 km
apogee height: 779 km
right ascension of ascending node: 98.2569°
argument of perigee: 88.3863°
revolutions per day: 14.34216025
mean anomaly at epoch: 62.3405°
orbit number at epoch: 75318

The dashed part of the orbit path shows where the satellite is in the earth's shadow,  

DLR